Lapse_Rate
7.1 7.1 7.1 7.1 7.1 6.9 6.8 6.8 6.9 6.9 6.7 6.6 6.4 6.5 6.6 6.8 6.8 6.7 6.7 6.7 6.7 6.6 6.6 6.5 6.4 6.4 6.4 6.4 6.4 6.5 6.7 6.7
6.8 6.9 6.9 6.9 7.1 6.9 6.9 6.8 6.9 6.9 6.9 6.7 6.5 6.3 6.4 6.7 6.7 6.7 6.6 6.6 6.6 6.4 6.4 6.3 6.2 6.3 6.3 6.2 6.4 6.4 6.6 6.7
6.6 6.6 6.7 6.8 7.0 7.1 6.9 6.9 6.9 7.1 7.0 6.8 6.6 6.5 6.3 6.4 6.7 6.6 6.6 6.5 6.4 6.3 6.3 6.3 6.3 6.3 6.2 6.2 6.3 6.3 6.5 6.5
6.5 6.4 6.4 6.5 6.6 7.0 7.1 6.9 6.9 7.0 7.1 6.9 6.8 6.7 6.5 6.2 6.4 6.5 6.5 6.5 6.4 6.3 6.3 6.3 6.3 6.2 6.1 6.2 6.2 6.3 6.3 6.4
6.4 6.4 6.3 6.3 6.5 6.5 6.8 7.0 6.8 7.0 7.1 7.2 7.0 6.9 6.8 6.5 6.3 6.4 6.5 6.5 6.5 6.4 6.3 6.2 6.2 6.2 6.2 6.2 6.2 6.2 6.2 6.3
6.9 6.5 6.3 6.1 6.2 6.4 6.5 6.7 6.9 6.8 7.0 7.2 7.3 7.1 7.0 6.8 6.6 6.4 6.3 6.3 6.4 6.4 6.3 6.3 6.3 6.2 6.2 6.2 6.2 6.2 6.2 6.2
6.6 6.7 6.9 6.7 6.3 6.0 6.1 6.3 6.7 6.8 6.8 6.9 7.2 7.3 7.1 7.0 6.9 6.7 6.5 6.3 6.3 6.4 6.4 6.3 6.3 6.3 6.2 6.3 6.2 6.3 6.3 6.3
6.9 6.8 6.7 6.8 6.9 6.8 6.5 6.3 6.2 6.5 6.7 6.8 6.9 7.1 7.3 7.1 7.1 7.0 6.8 6.6 6.4 6.4 6.4 6.4 6.4 6.3 6.3 6.3 6.3 6.4 6.4 6.4
6.6 6.9 7.2 6.8 6.8 6.7 6.7 6.9 6.6 6.5 6.5 6.7 6.8 6.9 7.1 7.3 7.1 7.1 7.1 7.0 6.8 6.7 6.5 6.4 6.4 6.4 6.3 6.4 6.3 6.4 6.5 6.6
6.4 6.5 6.5 6.7 7.0 6.9 6.7 6.8 6.9 7.0 6.8 6.7 6.6 6.9 7.0 7.0 7.3 7.3 7.2 7.2 7.1 7.0 6.9 6.8 6.6 6.4 6.4 6.4 6.5 6.5 6.6 6.7
6.7 6.6 6.5 6.5 6.7 6.8 6.8 7.0 6.9 7.0 7.1 7.0 6.9 6.7 6.8 7.0 7.1 7.2 7.3 7.4 7.3 7.3 7.2 7.1 7.0 6.8 6.6 6.6 6.6 6.7 6.7 6.8
5.9 6.4 6.8 6.7 6.7 6.9 6.8 6.7 6.7 7.0 7.0 7.4 7.0 6.9 6.7 6.8 7.0 7.1 7.2 7.3 7.4 7.5 7.4 7.4 7.3 7.2 7.0 6.9 6.8 6.9 7.0 7.0
5.2 5.6 6.0 6.6 6.8 6.8 6.8 6.8 6.8 6.8 7.0 7.3 7.2 7.1 7.2 6.8 6.8 7.0 7.0 7.2 7.4 7.6 7.5 7.4 7.5 7.5 7.4 7.2 7.2 7.1 7.2 7.2
4.3 4.6 5.3 5.9 6.4 6.8 6.8 6.6 6.8 6.8 6.9 7.1 7.2 7.1 7.3 7.3 7.1 6.9 6.9 6.9 7.3 7.4 7.5 7.6 7.6 7.6 7.6 7.5 7.5 7.5 7.5 7.4
4.4 4.5 4.5 5.0 5.8 6.3 6.6 6.8 6.7 6.8 6.6 6.7 6.8 6.6 6.7 7.4 7.5 7.1 6.9 6.7 7.0 7.2 7.3 7.4 7.4 7.5 7.7 7.4 7.5 7.8 7.6 7.8
4.1 4.4 4.8 4.8 5.1 5.7 6.4 6.4 6.7 6.8 6.8 6.8 7.0 6.3 6.1 6.4 7.2 7.4 7.1 6.9 6.7 7.2 7.2 7.4 7.3 7.4 7.5 7.6 7.7 7.7 7.8 7.6
4.5 4.3 4.6 4.9 5.2 5.4 5.9 6.4 6.5 6.6 6.7 6.7 6.8 6.4 6.2 5.4 6.7 6.8 6.8 6.8 6.7 6.7 6.9 6.9 7.2 7.2 7.3 7.4 7.6 7.7 7.8 7.6
5.4 5.0 4.8 4.9 5.2 5.5 5.9 6.2 6.4 6.6 6.5 6.7 6.4 6.6 6.2 6.0 5.2 5.9 5.9 6.8 7.0 6.7 6.7 6.7 6.7 6.9 7.0 7.0 7.4 7.5 7.8 7.9
6.7 6.4 5.9 5.8 5.6 6.0 6.1 6.2 6.6 6.7 6.7 6.6 6.4 6.4 6.6 5.7 5.8 4.7 5.8 6.3 6.8 6.8 6.4 6.5 6.7 6.8 7.0 6.9 7.1 7.3 7.7 7.7
7.4 7.6 7.3 6.9 6.8 6.8 6.7 6.8 6.7 6.9 7.0 6.7 6.6 6.4 6.8 6.3 5.8 5.6 5.1 5.9 6.3 6.7 6.5 6.4 6.4 6.5 6.8 6.9 6.8 7.2 7.2 7.5
Wind_Speed
12 11 10 10 10 13 17 17 16 15 14 13 14 15 16 17 16 15 14 14 14 17 18 17 17 15 15 13 8 3 11 12
10 11 10 10 10 10 13 15 14 14 14 14 14 15 14 14 14 12 11 11 15 17 16 15 15 14 13 13 10 7 10 11
7 9 10 10 11 11 11 11 12 12 13 13 14 13 15 14 8 12 9 8 11 15 14 13 13 11 10 11 13 6 7 7
4 6 8 9 10 12 12 12 12 13 12 14 13 11 12 13 9 8 6 6 11 14 13 13 14 11 10 9 6 6 5 5
5 6 7 9 9 11 12 12 12 12 12 14 10 11 9 11 11 11 10 9 13 13 13 12 7 7 9 6 6 6 6 5
19 10 9 10 10 11 11 11 13 12 14 15 11 11 12 12 12 13 11 12 11 13 12 8 8 6 6 6 5 4 5 5
17 18 19 11 14 11 13 13 13 13 15 17 16 14 11 13 12 13 13 13 11 11 9 10 9 8 8 8 7 5 5 4
16 15 19 21 15 14 14 14 15 15 15 17 19 16 13 14 13 13 13 12 12 11 10 10 9 8 8 8 9 8 7 5
17 15 17 17 18 17 15 16 16 15 17 18 20 20 17 15 14 14 15 14 13 11 11 11 8 8 7 9 9 9 9 9
17 17 16 18 14 16 14 18 17 17 17 16 21 21 19 18 15 14 17 16 14 13 10 8 8 8 7 7 9 9 11 11
17 17 17 17 18 16 15 17 14 18 18 18 18 21 22 20 17 17 18 17 15 11 9 9 9 8 9 8 7 8 11 13
17 15 17 17 15 14 11 10 11 17 18 16 18 20 22 21 19 19 19 14 12 11 12 10 10 9 9 9 8 8 11 11
18 18 18 14 11 11 6 4 9 7 13 17 19 23 21 22 20 19 19 14 14 14 12 13 10 9 8 9 9 9 10 9
19 18 17 14 12 10 7 8 7 8 14 15 19 22 22 22 20 14 17 13 14 15 14 11 11 10 9 9 9 11 11 12
17 18 18 15 16 12 11 8 8 6 4 7 13 22 23 24 23 20 15 13 13 14 15 17 12 12 14 10 7 10 9 11
18 17 16 15 19 14 16 10 10 9 7 8 11 20 22 21 22 20 18 13 14 13 13 14 14 13 10 13 15 11 7 8
16 17 16 16 16 15 12 13 11 10 10 11 11 12 18 19 21 15 13 12 15 15 13 14 13 13 13 11 13 14 13 11
14 17 17 16 16 16 15 15 15 12 12 11 9 8 8 16 13 14 16 13 14 13 15 17 15 14 14 13 12 12 14 12
14 16 16 17 16 16 15 15 15 15 13 11 14 9 9 10 12 9 10 14 14 14 12 14 16 15 15 14 13 13 13 13
14 15 16 16 17 17 15 15 11 11 13 11 10 10 9 15 9 12 13 17 15 12 10 11 14 13 20 16 14 13 13 13
Wind_Direction
142 142 132 125 137 143 142 142 143 141 137 141 144 142 143 146 145 143 138 136 133 140 140 138 136 131 129 125 129 53 114 111
148 149 155 154 153 147 147 147 148 146 143 146 151 150 152 154 150 146 142 140 145 146 144 142 139 138 137 135 135 163 119 128
154 159 161 160 162 156 151 153 153 149 146 148 156 168 171 167 156 153 151 144 149 151 145 142 139 137 140 150 178 115 133 126
171 188 180 176 173 164 172 167 176 182 179 170 182 163 186 195 162 164 161 150 150 150 148 149 169 151 151 176 205 123 142 143
214 228 213 208 190 185 185 180 182 190 195 192 195 183 182 201 181 191 187 179 166 167 163 183 170 167 157 179 123 175 134 132
350 304 202 233 212 205 202 197 192 194 196 199 200 201 186 200 196 196 203 195 182 192 186 188 180 179 172 164 170 163 149 142
352 338 334 232 236 216 219 214 203 204 195 200 207 211 202 202 204 205 207 203 206 208 200 194 191 186 183 184 183 173 159 159
354 339 339 315 234 241 241 222 213 208 207 205 209 213 208 213 209 214 213 210 216 223 223 208 209 199 195 199 194 188 187 183
358 348 346 351 280 231 226 248 233 220 216 209 208 212 211 220 221 217 217 213 220 222 227 239 232 217 213 198 201 205 196 195
358 355 357 353 337 327 231 229 239 233 227 219 213 213 218 213 221 224 223 216 213 219 215 218 227 229 228 222 217 212 211 205
358 357 359 353 347 338 301 234 222 234 232 227 223 218 215 222 223 222 224 222 216 219 220 225 219 230 234 231 231 231 213 211
0 359 358 351 353 339 342 266 245 243 234 223 228 227 221 219 227 226 220 223 223 218 224 218 235 228 231 230 238 235 233 223
1 359 359 353 353 355 345 328 325 249 245 225 219 230 230 225 227 223 225 225 223 217 223 230 224 235 242 240 239 234 240 236
1 358 359 357 352 342 331 309 285 283 252 225 223 223 225 227 228 229 219 226 225 220 216 224 227 219 228 239 239 230 226 231
3 1 358 0 354 345 341 336 331 323 327 280 226 229 224 224 224 226 228 222 224 220 219 219 225 224 217 235 230 248 249 206
1 359 2 2 356 351 347 343 337 329 319 303 319 222 228 227 229 225 228 225 227 221 222 227 224 231 213 234 251 279 255 246
360 358 360 3 0 357 348 346 344 331 325 322 329 343 247 222 222 226 227 230 229 233 228 220 226 232 234 219 234 238 239 265
357 356 359 359 359 358 353 346 338 340 340 334 337 327 318 272 222 218 219 224 228 230 233 233 229 232 235 235 232 228 233 234
349 354 354 357 356 355 355 350 341 336 344 336 334 336 340 329 318 233 234 228 227 232 232 234 232 233 231 234 236 238 242 242
350 349 349 355 354 353 350 351 348 340 341 337 328 334 326 323 322 329 246 233 234 228 234 237 232 234 236 234 239 238 239 240